Home > Weather > Aix-en-Provence > Past weeks

Flag for France Weather for the Past 2 Weeks in Aix-en-Provence, France

Now
55 °F

Passing clouds.


Feels Like: 55 °F
Forecast: 41 / 56 °F
Wind: 5 mph from Southwest

Location: Marseille / Marignane

Current Time: Feb 8, 2016 at 8:58:25 PM

Latest Report: Feb 8, 2016 at 8:30 PM


Visibility: N/A

Pressure: 30.12 "Hg

Humidity: 63%

Dew point: 43 °F

Location of Aix-en-ProvenceLocation

Historic Weather in Aix-en-Provence — Graph

°F

Aix-en-Provence Temperature Yesterday

Maximum temperature yesterday: 57 °F (at 12:00 AM)
Minimum temperature yesterday: 45 °F (at 9:30 PM)
Average temperature yesterday: 52 °F

High & Low Weather Summary for the Past Weeks

 TemperatureHumidityPressure
High66 °F (Feb 1, 1:00 PM)100% (Jan 24, 11:00 PM)30.54 "Hg (Jan 24, 11:00 PM)
Low37 °F (Feb 8, 6:30 AM)41% (Feb 4, 2:00 PM)29.68 "Hg (Feb 7, 9:30 AM)
Average53 °F78%30.29 "Hg
* Reported Jan 24 7:00 PM — Feb 8 7:30 PM, Aix-en-Provence, Weather by CustomWeather, © 2016

Note: Actual official high and low records may vary slightly from our data, if they occured in-between our weather recording intervals... More about our weather records

Advertising

Aix-en-Provence Weather History for the Previous 24 Hours

 ConditionsComfort  
Time TempWeatherWind HumidityBarometerVisibility
7:30 PM
Mon, Feb 8
55 °FClear.5 mph63%30.12 "Hg10 mi
7:00 PM55 °FPassing clouds.3 mph67%30.09 "HgN/A
6:30 PM55 °FPassing clouds.6 mph72%30.09 "HgN/A
6:00 PM57 °FClear.6 mph63%30.07 "Hg10 mi
5:30 PM57 °FSunny.6 mph67%30.07 "Hg10 mi
5:00 PM59 °FSunny.3 mph63%30.07 "Hg10 mi
4:30 PM61 °FSunny.6 mph63%30.07 "Hg10 mi
4:00 PM61 °FSunny.6 mph63%30.07 "Hg10 mi
3:30 PM61 °FSunny.7 mph63%30.07 "Hg10 mi
3:00 PM61 °FPartly sunny.3 mph63%30.07 "HgN/A
2:30 PM59 °FPartly sunny.2 mph63%30.07 "HgN/A
2:00 PM59 °FSunny.6 mph63%30.07 "Hg10 mi
1:30 PM57 °FSunny.6 mph63%30.09 "Hg10 mi
1:00 PM59 °FSunny.2 mph59%30.09 "Hg10 mi
12:30 PM57 °FSunny.3 mph63%30.09 "Hg10 mi
12:00 PM55 °FSunny.3 mph67%30.12 "Hg10 mi
11:30 AM55 °FSunny.3 mph67%30.12 "Hg10 mi
11:00 AM54 °FSunny.2 mph67%30.09 "Hg10 mi
10:30 AM52 °FSunny.No wind72%30.12 "Hg10 mi
10:00 AM50 °FSunny.2 mph76%30.12 "Hg10 mi
9:30 AM46 °FSunny.3 mph87%30.09 "Hg10 mi
9:00 AM43 °FSunny.2 mph87%30.09 "Hg10 mi
8:30 AM43 °FSunny.7 mph87%30.07 "Hg10 mi
8:00 AM39 °FSunny.6 mph93%30.07 "Hg10 mi
7:30 AM37 °FClear.2 mph93%30.07 "Hg10 mi
7:00 AM41 °FPassing clouds.2 mph87%30.07 "HgN/A
6:30 AM37 °FClear.No wind87%30.07 "Hg10 mi
6:00 AM41 °FClear.No wind87%30.04 "Hg10 mi
5:30 AM39 °FClear.7 mph87%30.07 "Hg10 mi
5:00 AM43 °FClear.8 mph76%30.04 "Hg10 mi
4:30 AM45 °FClear.10 mph76%30.04 "Hg10 mi
4:00 AM43 °FClear.8 mph81%30.04 "Hg10 mi
3:30 AM43 °FClear.2 mph76%30.04 "Hg10 mi
3:00 AM43 °FClear.7 mph81%30.04 "Hg10 mi
2:00 AM41 °FClear.5 mph87%30.04 "Hg10 mi
1:30 AM43 °FClear.8 mph87%30.04 "Hg10 mi
12:30 AM45 °FPassing clouds.3 mph81%30.04 "HgN/A
12:00 AM45 °FClear.7 mph76%30.04 "Hg10 mi
11:30 PM
Sun, Feb 7
45 °FClear.5 mph76%30.04 "Hg10 mi
11:00 PM45 °FClear.8 mph81%30.01 "Hg10 mi
10:30 PM45 °FClear.7 mph76%30.01 "Hg10 mi
10:00 PM46 °FClear.12 mph71%30.01 "Hg10 mi
9:30 PM45 °FClear.15 mph81%30.01 "Hg10 mi
9:00 PM46 °FClear.14 mph76%29.98 "Hg10 mi
8:30 PM46 °FClear.12 mph71%29.98 "Hg10 mi
8:00 PM48 °FClear.13 mph66%29.95 "Hg10 mi
Weather by CustomWeather, © 2016

See weather overviewHow to use our weather pages